Time,TemperatureF,DewpointF,PressureIn,WindDirection,WindDirectionDegrees,WindSpeedMPH,WindSpeedGustMPH,Humidity,HourlyPrecipIn,Conditions,Clouds,dailyrainin,SoftwareType,DateUTC
2013-02-19 00:02:00,45.0,42.0,29.47,SSE,152,7.0,15.0,90,0.05,,,0.24,,2013-02-19 05:02:00,
2013-02-19 00:12:00,45.0,42.0,29.47,SSE,152,7.0,15.0,90,0.05,,,0.24,,2013-02-19 05:12:00,
2013-02-19 00:22:00,45.0,43.0,29.47,South,171,7.0,19.0,91,0.06,,,0.27,,2013-02-19 05:22:00,
2013-02-19 00:32:00,45.0,43.0,29.46,SSW,211,7.0,15.0,91,0.08,,,0.28,,2013-02-19 05:32:00,
2013-02-19 00:43:00,45.0,43.0,29.46,SSW,211,7.0,15.0,91,0.08,,,0.28,,2013-02-19 05:43:00,
2013-02-19 00:52:00,45.0,43.0,29.46,SE,144,7.0,19.0,91,0.08,,,0.31,,2013-02-19 05:52:00,
2013-02-19 01:02:00,45.0,43.0,29.46,SSW,194,6.0,14.0,92,0.09,,,0.33,,2013-02-19 06:02:00,
2013-02-19 01:12:00,45.0,43.0,29.46,SSW,194,6.0,14.0,92,0.09,,,0.33,,2013-02-19 06:12:00,
2013-02-19 01:21:00,44.0,42.0,29.47,SW,228,2.0,12.0,92,0.08,,,0.35,,2013-02-19 06:21:00,
2013-02-19 01:32:00,40.0,36.0,29.51,SW,223,3.0,13.0,86,0.08,,,0.37,,2013-02-19 06:32:00,
2013-02-19 01:42:00,40.0,36.0,29.51,SW,223,3.0,13.0,86,0.08,,,0.37,,2013-02-19 06:42:00,
2013-02-19 01:52:00,37.0,34.0,29.52,NW,326,2.0,9.0,90,0.08,,,0.39,,2013-02-19 06:52:00,
2013-02-19 02:01:00,35.0,33.0,29.53,WNW,282,1.0,7.0,92,0.06,,,0.39,,2013-02-19 07:01:00,
2013-02-19 02:11:00,35.0,33.0,29.53,WNW,282,1.0,7.0,92,0.06,,,0.39,,2013-02-19 07:11:00,
2013-02-19 02:22:00,35.0,33.0,29.54,WSW,254,1.0,7.0,93,0.04,,,0.39,,2013-02-19 07:22:00,
2013-02-19 02:32:00,35.0,33.0,29.54,NW,321,1.0,8.0,92,0.02,,,0.39,,2013-02-19 07:32:00,
2013-02-19 02:42:00,35.0,33.0,29.54,NW,321,1.0,8.0,92,0.02,,,0.39,,2013-02-19 07:42:00,
2013-02-19 02:52:00,34.0,32.0,29.55,North,355,1.0,8.0,91,0.00,,,0.39,,2013-02-19 07:52:00,
2013-02-19 03:02:00,34.0,32.0,29.56,WNW,302,0.0,8.0,92,0.00,,,0.39,,2013-02-19 08:02:00,
2013-02-19 03:11:00,34.0,32.0,29.56,WNW,302,0.0,8.0,92,0.00,,,0.39,,2013-02-19 08:11:00,
2013-02-19 03:21:00,33.0,31.0,29.57,NNE,16,1.0,11.0,91,0.00,,,0.39,,2013-02-19 08:21:00,
2013-02-19 03:31:00,33.0,31.0,29.58,WNW,290,0.0,2.0,92,0.00,,,0.39,,2013-02-19 08:31:00,
2013-02-19 03:42:00,33.0,31.0,29.58,WNW,290,0.0,2.0,92,0.00,,,0.39,,2013-02-19 08:42:00,
2013-02-19 03:52:00,32.0,30.0,29.59,WSW,244,2.0,5.0,91,0.00,,,0.39,,2013-02-19 08:52:00,
2013-02-19 04:01:00,31.0,28.0,29.61,North,350,1.0,8.0,89,0.00,,,0.39,,2013-02-19 09:01:00,
2013-02-19 04:11:00,31.0,28.0,29.61,North,350,1.0,8.0,89,0.00,,,0.39,,2013-02-19 09:11:00,
2013-02-19 04:22:00,31.0,28.0,29.61,North,350,1.0,8.0,89,0.00,,,0.39,,2013-02-19 09:22:00,
2013-02-19 04:32:00,30.0,27.0,29.63,SSE,161,1.0,17.0,89,0.00,,,0.39,,2013-02-19 09:32:00,
2013-02-19 04:42:00,30.0,27.0,29.63,SSE,161,1.0,17.0,89,0.00,,,0.39,,2013-02-19 09:42:00,
2013-02-19 04:53:00,29.0,26.0,29.63,SW,219,1.0,5.0,88,0.00,,,0.39,,2013-02-19 09:53:00,
2013-02-19 05:02:00,29.0,26.0,29.63,North,355,1.0,7.0,89,0.00,,,0.39,,2013-02-19 10:02:00,
2013-02-19 05:11:00,29.0,26.0,29.63,North,355,1.0,7.0,89,0.00,,,0.39,,2013-02-19 10:11:00,
2013-02-19 05:21:00,28.0,25.0,29.64,NNW,328,2.0,7.0,87,0.00,,,0.39,,2013-02-19 10:21:00,
2013-02-19 05:32:00,27.0,24.0,29.65,West,279,3.0,9.0,87,0.00,,,0.39,,2013-02-19 10:32:00,
2013-02-19 05:42:00,27.0,24.0,29.65,West,279,3.0,9.0,87,0.00,,,0.39,,2013-02-19 10:42:00,
2013-02-19 05:51:00,26.0,22.0,29.66,WSW,253,2.0,8.0,85,0.00,,,0.39,,2013-02-19 10:51:00,
2013-02-19 06:01:00,26.0,22.0,29.66,West,271,2.0,6.0,86,0.00,,,0.39,,2013-02-19 11:01:00,
2013-02-19 06:11:00,26.0,22.0,29.66,West,271,2.0,6.0,86,0.00,,,0.39,,2013-02-19 11:11:00,
2013-02-19 06:22:00,25.0,21.0,29.67,SW,228,2.0,8.0,86,0.00,,,0.39,,2013-02-19 11:22:00,
2013-02-19 06:32:00,25.0,22.0,29.68,NW,306,3.0,7.0,87,0.00,,,0.39,,2013-02-19 11:32:00,
2013-02-19 06:42:00,25.0,22.0,29.68,NW,306,3.0,7.0,87,0.00,,,0.39,,2013-02-19 11:42:00,
2013-02-19 06:52:00,24.0,20.0,29.68,WSW,244,1.0,6.0,86,0.00,,,0.39,,2013-02-19 11:52:00,
2013-02-19 07:02:00,24.0,20.0,29.69,WSW,244,3.0,7.0,86,0.00,,,0.39,,2013-02-19 12:02:00,
2013-02-19 07:12:00,24.0,20.0,29.69,WSW,244,3.0,7.0,86,0.00,,,0.39,,2013-02-19 12:12:00,
2013-02-19 07:22:00,23.0,19.0,29.70,SW,215,3.0,9.0,85,0.00,,,0.39,,2013-02-19 12:22:00,
2013-02-19 07:32:00,23.0,19.0,29.70,West,272,2.0,7.0,85,0.00,,,0.39,,2013-02-19 12:32:00,
2013-02-19 07:42:00,23.0,19.0,29.70,West,272,2.0,7.0,85,0.00,,,0.39,,2013-02-19 12:42:00,
2013-02-19 07:52:00,23.0,19.0,29.70,WSW,250,1.0,7.0,86,0.00,,,0.39,,2013-02-19 12:52:00,
2013-02-19 08:02:00,22.0,18.0,29.71,SE,136,2.0,7.0,85,0.00,,,0.39,,2013-02-19 13:02:00,
2013-02-19 08:11:00,22.0,18.0,29.71,SE,136,2.0,7.0,85,0.00,,,0.39,,2013-02-19 13:11:00,
2013-02-19 08:22:00,22.0,18.0,29.72,SW,217,2.0,9.0,86,0.00,,,0.39,,2013-02-19 13:22:00,
2013-02-19 08:32:00,22.0,18.0,29.72,SW,221,3.0,11.0,84,0.00,,,0.39,,2013-02-19 13:32:00,
2013-02-19 08:42:00,22.0,18.0,29.72,SW,221,3.0,11.0,84,0.00,,,0.39,,2013-02-19 13:42:00,
2013-02-19 08:52:00,21.0,17.0,29.74,SW,232,2.0,8.0,84,0.00,,,0.39,,2013-02-19 13:52:00,
2013-02-19 09:01:00,21.0,17.0,29.75,WSW,256,2.0,6.0,85,0.00,,,0.39,,2013-02-19 14:01:00,
2013-02-19 09:11:00,21.0,17.0,29.75,WSW,256,2.0,6.0,85,0.00,,,0.39,,2013-02-19 14:11:00,
2013-02-19 09:21:00,21.0,17.0,29.75,WSW,238,2.0,6.0,86,0.00,,,0.39,,2013-02-19 14:21:00,
2013-02-19 09:32:00,20.0,16.0,29.76,West,279,0.0,5.0,86,0.00,,,0.39,,2013-02-19 14:32:00,
2013-02-19 09:42:00,20.0,16.0,29.76,West,279,0.0,5.0,86,0.00,,,0.39,,2013-02-19 14:42:00,
2013-02-19 09:52:00,20.0,17.0,29.77,SW,236,1.0,5.0,88,0.00,,,0.39,,2013-02-19 14:52:00,
2013-02-19 10:01:00,19.0,16.0,29.78,WSW,248,1.0,6.0,87,0.00,,,0.39,,2013-02-19 15:01:00,
2013-02-19 10:11:00,19.0,16.0,29.78,WSW,248,1.0,6.0,87,0.00,,,0.39,,2013-02-19 15:11:00,
2013-02-19 10:21:00,19.0,16.0,29.78,West,273,1.0,6.0,87,0.00,,,0.39,,2013-02-19 15:21:00,
2013-02-19 10:32:00,19.0,16.0,29.79,West,264,1.0,5.0,87,0.00,,,0.39,,2013-02-19 15:32:00,
2013-02-19 10:42:00,19.0,16.0,29.79,West,264,1.0,5.0,87,0.00,,,0.39,,2013-02-19 15:42:00,
2013-02-19 10:52:00,19.0,16.0,29.79,West,264,1.0,5.0,87,0.00,,,0.39,,2013-02-19 15:52:00,
2013-02-19 11:02:00,19.0,15.0,29.80,NNW,348,2.0,6.0,85,0.00,,,0.39,,2013-02-19 16:02:00,
2013-02-19 11:11:00,19.0,15.0,29.80,NNW,348,2.0,6.0,85,0.00,,,0.39,,2013-02-19 16:11:00,
2013-02-19 11:22:00,19.0,16.0,29.81,West,269,1.0,4.0,86,0.00,,,0.39,,2013-02-19 16:22:00,
2013-02-19 11:32:00,19.0,16.0,29.81,WSW,244,2.0,5.0,86,0.00,,,0.39,,2013-02-19 16:32:00,
2013-02-19 11:42:00,19.0,16.0,29.81,WSW,244,2.0,5.0,86,0.00,,,0.39,,2013-02-19 16:42:00,
2013-02-19 11:51:00,19.0,16.0,29.82,West,268,1.0,6.0,86,0.00,,,0.39,,2013-02-19 16:51:00,
2013-02-19 12:01:00,19.0,15.0,29.83,NNW,331,2.0,7.0,84,0.00,,,0.39,,2013-02-19 17:01:00,
2013-02-19 12:11:00,19.0,15.0,29.83,NNW,331,2.0,7.0,84,0.00,,,0.39,,2013-02-19 17:11:00,
2013-02-19 12:21:00,19.0,16.0,29.84,NNW,327,1.0,4.0,86,0.00,,,0.38,,2013-02-19 17:21:00,
2013-02-19 12:32:00,19.0,15.0,29.85,South,186,1.0,8.0,83,0.00,,,0.38,,2013-02-19 17:32:00,
2013-02-19 12:42:00,19.0,15.0,29.85,South,186,1.0,8.0,83,0.00,,,0.38,,2013-02-19 17:42:00,
2013-02-19 12:52:00,19.0,15.0,29.85,SW,220,1.0,6.0,85,0.00,,,0.38,,2013-02-19 17:52:00,
2013-02-19 13:01:00,19.0,15.0,29.85,West,274,1.0,5.0,85,0.00,,,0.38,,2013-02-19 18:01:00,
2013-02-19 13:11:00,19.0,15.0,29.85,West,274,1.0,5.0,85,0.00,,,0.38,,2013-02-19 18:11:00,
2013-02-19 13:21:00,20.0,15.0,29.85,WNW,289,2.0,9.0,81,0.00,,,0.38,,2013-02-19 18:21:00,
2013-02-19 13:32:00,20.0,15.0,29.86,North,11,2.0,7.0,81,0.01,,,0.39,,2013-02-19 18:32:00,
2013-02-19 13:42:00,20.0,15.0,29.86,North,11,2.0,7.0,81,0.01,,,0.39,,2013-02-19 18:42:00,
2013-02-19 13:51:00,19.0,15.0,29.86,SW,215,1.0,11.0,83,0.01,,,0.39,,2013-02-19 18:51:00,
2013-02-19 14:01:00,19.0,14.0,29.87,WNW,290,2.0,12.0,81,0.01,,,0.39,,2013-02-19 19:01:00,
2013-02-19 14:11:00,19.0,14.0,29.87,WNW,290,2.0,12.0,81,0.01,,,0.39,,2013-02-19 19:11:00,
2013-02-19 14:21:00,19.0,14.0,29.87,NW,320,1.0,5.0,81,0.01,,,0.39,,2013-02-19 19:21:00,
2013-02-19 14:32:00,19.0,15.0,29.88,NW,326,2.0,8.0,83,0.00,,,0.39,,2013-02-19 19:32:00,
2013-02-19 14:41:00,19.0,15.0,29.88,NW,326,2.0,8.0,83,0.00,,,0.39,,2013-02-19 19:41:00,
2013-02-19 14:51:00,19.0,14.0,29.89,NW,306,3.0,9.0,82,0.00,,,0.39,,2013-02-19 19:51:00,
2013-02-19 15:01:00,18.0,14.0,29.90,South,176,2.0,8.0,83,0.00,,,0.39,,2013-02-19 20:01:00,
2013-02-19 15:12:00,18.0,14.0,29.90,South,176,2.0,8.0,83,0.00,,,0.39,,2013-02-19 20:12:00,
2013-02-19 15:21:00,18.0,14.0,29.91,NNW,346,2.0,8.0,83,0.00,,,0.39,,2013-02-19 20:21:00,
2013-02-19 15:32:00,18.0,14.0,29.91,NW,304,1.0,7.0,83,0.00,,,0.39,,2013-02-19 20:32:00,
2013-02-19 15:42:00,18.0,14.0,29.91,NW,304,1.0,7.0,83,0.00,,,0.39,,2013-02-19 20:42:00,
2013-02-19 15:52:00,18.0,14.0,29.92,WSW,240,1.0,8.0,84,0.00,,,0.39,,2013-02-19 20:52:00,
2013-02-19 16:02:00,17.0,13.0,29.93,WSW,257,1.0,6.0,85,0.00,,,0.39,,2013-02-19 21:02:00,
2013-02-19 16:11:00,17.0,13.0,29.93,WSW,257,1.0,6.0,85,0.00,,,0.39,,2013-02-19 21:11:00,
2013-02-19 16:21:00,17.0,13.0,29.94,West,269,1.0,6.0,85,0.00,,,0.39,,2013-02-19 21:21:00,
2013-02-19 16:32:00,17.0,14.0,29.95,WSW,245,1.0,6.0,86,0.00,,,0.39,,2013-02-19 21:32:00,
2013-02-19 16:42:00,17.0,14.0,29.95,WSW,245,1.0,6.0,86,0.00,,,0.39,,2013-02-19 21:42:00,
2013-02-19 16:51:00,17.0,14.0,29.96,NNW,329,1.0,5.0,86,0.00,,,0.39,,2013-02-19 21:51:00,
2013-02-19 17:02:00,17.0,14.0,29.96,NW,305,0.0,2.0,86,0.00,,,0.39,,2013-02-19 22:02:00,
2013-02-19 17:11:00,17.0,14.0,29.96,NW,305,0.0,2.0,86,0.00,,,0.39,,2013-02-19 22:11:00,
2013-02-19 17:21:00,17.0,14.0,29.98,West,259,1.0,7.0,86,0.00,,,0.39,,2013-02-19 22:21:00,
2013-02-19 17:32:00,17.0,14.0,29.98,SSE,163,0.0,3.0,87,0.00,,,0.39,,2013-02-19 22:32:00,
2013-02-19 17:41:00,17.0,14.0,29.98,SSE,163,0.0,3.0,87,0.00,,,0.39,,2013-02-19 22:41:00,
2013-02-19 17:52:00,16.0,13.0,29.99,NNE,32,0.0,4.0,88,0.00,,,0.39,,2013-02-19 22:52:00,
2013-02-19 18:01:00,16.0,13.0,30.01,SE,141,1.0,5.0,87,0.00,,,0.39,,2013-02-19 23:01:00,
2013-02-19 18:11:00,16.0,13.0,30.01,SE,141,1.0,5.0,87,0.00,,,0.39,,2013-02-19 23:11:00,
2013-02-19 18:21:00,16.0,13.0,30.01,NNW,330,1.0,4.0,87,0.00,,,0.35,,2013-02-19 23:21:00,
2013-02-19 18:32:00,16.0,13.0,30.01,West,276,1.0,5.0,86,0.00,,,0.35,,2013-02-19 23:32:00,
2013-02-19 18:41:00,16.0,13.0,30.01,West,276,1.0,5.0,86,0.00,,,0.35,,2013-02-19 23:41:00,
2013-02-19 18:52:00,16.0,13.0,30.02,WSW,238,0.0,2.0,86,0.00,,,0.35,,2013-02-19 23:52:00,
2013-02-19 19:01:00,16.0,13.0,30.03,West,277,0.0,4.0,86,0.00,,,0.35,,2013-02-20 00:01:00,
2013-02-19 19:11:00,16.0,13.0,30.03,West,277,0.0,4.0,86,0.00,,,0.35,,2013-02-20 00:11:00,
2013-02-19 19:21:00,16.0,13.0,30.03,WNW,296,0.0,4.0,87,0.00,,,0.32,,2013-02-20 00:21:00,
2013-02-19 19:32:00,16.0,13.0,30.04,WSW,256,1.0,6.0,86,0.00,,,0.32,,2013-02-20 00:32:00,
2013-02-19 19:42:00,16.0,13.0,30.04,WSW,256,1.0,6.0,86,0.00,,,0.32,,2013-02-20 00:42:00,
2013-02-19 19:52:00,16.0,13.0,30.05,NW,308,1.0,9.0,86,0.00,,,0.32,,2013-02-20 00:52:00,
2013-02-19 20:02:00,16.0,13.0,30.06,NW,318,2.0,9.0,86,0.00,,,0.32,,2013-02-20 01:02:00,
2013-02-19 20:11:00,16.0,13.0,30.06,NW,318,2.0,9.0,86,0.00,,,0.32,,2013-02-20 01:11:00,
2013-02-19 20:21:00,16.0,13.0,30.06,NNW,344,0.0,2.0,87,0.00,,,0.32,,2013-02-20 01:21:00,
2013-02-19 20:32:00,16.0,13.0,30.07,NW,323,0.0,4.0,88,0.00,,,0.32,,2013-02-20 01:32:00,
2013-02-19 20:42:00,16.0,13.0,30.07,NW,323,0.0,4.0,88,0.00,,,0.32,,2013-02-20 01:42:00,
2013-02-19 20:52:00,16.0,13.0,30.08,NW,316,0.0,4.0,89,0.00,,,0.32,,2013-02-20 01:52:00,
2013-02-19 21:01:00,16.0,13.0,30.08,North,9,0.0,7.0,86,0.00,,,0.32,,2013-02-20 02:01:00,
2013-02-19 21:11:00,16.0,13.0,30.08,North,9,0.0,7.0,86,0.00,,,0.32,,2013-02-20 02:11:00,
2013-02-19 21:21:00,16.0,13.0,30.09,WNW,302,0.0,5.0,86,0.00,,,0.31,,2013-02-20 02:21:00,
2013-02-19 21:32:00,16.0,12.0,30.09,WNW,293,1.0,6.0,84,0.00,,,0.31,,2013-02-20 02:32:00,
2013-02-19 21:42:00,16.0,12.0,30.09,WNW,293,1.0,6.0,84,0.00,,,0.31,,2013-02-20 02:42:00,
2013-02-19 21:52:00,16.0,12.0,30.09,NW,308,1.0,4.0,85,0.00,,,0.31,,2013-02-20 02:52:00,
2013-02-19 22:01:00,16.0,13.0,30.09,WNW,294,0.0,3.0,86,0.00,,,0.31,,2013-02-20 03:01:00,
2013-02-19 22:12:00,16.0,13.0,30.09,WNW,294,0.0,3.0,86,0.00,,,0.31,,2013-02-20 03:12:00,
2013-02-19 22:22:00,16.0,13.0,30.09,WNW,294,0.0,3.0,86,0.00,,,0.31,,2013-02-20 03:22:00,
2013-02-19 22:32:00,16.0,13.0,30.10,ESE,107,0.0,3.0,86,0.00,,,0.25,,2013-02-20 03:32:00,
2013-02-19 22:41:00,16.0,13.0,30.10,ESE,107,0.0,3.0,86,0.00,,,0.25,,2013-02-20 03:41:00,
2013-02-19 22:52:00,16.0,13.0,30.10,NW,323,0.0,2.0,86,0.00,,,0.25,,2013-02-20 03:52:00,
2013-02-19 23:01:00,16.0,13.0,30.11,WNW,288,1.0,4.0,86,0.00,,,0.25,,2013-02-20 04:01:00,
2013-02-19 23:11:00,16.0,13.0,30.11,WNW,288,1.0,4.0,86,0.00,,,0.25,,2013-02-20 04:11:00,
2013-02-19 23:21:00,17.0,14.0,30.11,NW,317,0.0,7.0,88,0.00,,,0.19,,2013-02-20 04:21:00,
2013-02-19 23:31:00,16.0,13.0,30.11,WNW,297,0.0,2.0,89,0.00,,,0.19,,2013-02-20 04:31:00,
2013-02-19 23:42:00,16.0,13.0,30.11,WNW,297,0.0,2.0,89,0.00,,,0.19,,2013-02-20 04:42:00,
2013-02-19 23:52:00,16.0,13.0,30.12,NW,322,0.0,5.0,89,0.00,,,0.19,,2013-02-20 04:52:00,